Tracking 20066 objects as of 7-Dec-2019
HD Live streaming from Space Station
objects crossing your sky now

COSMOS 2251 DEB

Track COSMOS 2251 DEB now!
10-day predictions


NORAD ID: 39548
Int'l Code: 1993-036BUE
Perigee: 682.7 km
Apogee: 698.6 km
Inclination: 74.0 °
Period: 98.4 minutes
Semi major axis: 7061 km
RCS: Unknown
Launch date: June 16, 1993
Source: Commonwealth of Independent States (former USSR) (CIS)
Launch site: PLESETSK MISSILE AND SPACE COMPLEX (PKMTR)

Note: This is SATELLITE DEBRIS
aabbcc
Your satellite tracking list
Your tracking list is empty




NASA's NSSDC Master Catalog

Two Line Element Set (TLE):
1 39548U 93036BUE 19338.26708597  .00001798  00000-0  35633-3 0  9996
2 39548  74.0120 183.2463 0011249 327.4971 156.3601 14.62998099412211
Source of the keplerian elements: AFSPC